Location: *
(28.2408°N, 53.4600°E)
Time: 15:11:24
(UTC+00:00)

Cosmos 2237 Rocket - Pass Details

Date: 22 September 2019
Orbit: 833 x 851 km, 71.0° (Epoch: 17 October)

Event Time Altitude Azimuth Distance (km) Brightness Sun altitude
Rises 15:23:31 0° 353° (N) 3,418 5.6 -14.1°
Reaches altitude 10° 15:26:15 10° 3° (N) 2,480 4.7 -14.6°
Maximum altitude 15:31:18 32° 66° (ENE) 1,417 2.9 -15.7°
Enters shadow 15:33:22 25° 103° (ESE) 1,642 3.1 -16.2°
